[[{"header":{"parameterUnit":"m.s-1","parameterCategory":1,"la1":30.2991,"la2":30.254,"lo1":-89.0895,"lo2":-89.0444,"dy":0.0017,"dx":0.0017,"nx":28,"ny":28,"refTime":"2023-08-20T09:00:00:Z","depth":0,"parameterNumber":2,"parameterNumberName":"U-component_of_WINDS"},"data":[0,0,0,0,0,0,0,0,0,0,0,0,0,0,0,0,0,0,0,0,0,0,0,0,0,0,0,0,0,0,0,0,0,0,0,0,0,0,0,0,0,0,0,0,0,0,0,0,0,0,0,0,0,0,0,0,0,0,-6.0133,-6.0134,0,-6.0206,-6.0206,-6.0207,-6.0107,-6.0103,-6.01,-6.0096,-6.0167,-6.0172,-6.0177,0,0,0,0,0,0,0,0,0,0,0,0,0,-5.9903,-5.9907,-6.0133,-6.0134,-6.0135,-6.0205,-6.0206,-6.0207,-6.0108,-6.0103,-6.0099,-6.0095,-6.0165,-6.0171,-6.0177,0,0,0,0,0,0,0,0,0,0,0,0,0,-5.9992,-5.9909,-6.0133,-6.0093,-6.0091,-6.0205,-6.0206,-6.0208,-6.0109,-6.0103,-6.0098,-6.0093,-6.0163,-6.017,-6.0178,-6.0333,0,0,-6.0202,-6.0205,0,0,0,0,0,0,0,0,-5.9987,-6.0,-6.0098,-6.0096,-6.0093,-6.0142,-6.0151,-6.025,-6.011,-6.0102,-6.0096,-6.009,-6.0162,-6.017,-6.0195,-6.0336,-6.0339,-6.0203,-6.0207,-6.0211,-6.0213,0,0,0,0,0,0,0,-5.9981,-5.9996,-6.0161,-6.01,-6.0097,-6.0071,-6.0077,-6.0169,-6.0161,-6.0102,-6.0095,-6.0105,-6.016,-6.0188,-6.0196,-6.0341,-6.0202,-6.0209,-6.0214,-6.0217,-6.061,-6.0616,0,0,0,0,0,0,-5.998,-5.9992,-6.0159,-6.0163,-6.0026,-6.0079,-6.0087,-6.0132,-6.016,-6.0159,-6.011,-6.01,-6.0177,-6.0187,-6.0198,-6.0379,-6.0211,-6.0218,-6.0222,-6.0605,-6.0612,-6.0618,0,0,0,0,0,0,-5.9975,-5.9996,-6.0156,-6.0076,-6.0094,-6.0089,-6.014,-6.0136,-6.0163,-6.0166,-6.0163,-6.014,-6.0173,-6.0187,-6.03,-6.038,-6.0221,-6.0229,-6.0598,-6.0607,-6.0615,-6.0744,0,0,0,0,0,0,-5.9969,-5.9995,-6.0055,-6.0078,-6.0099,-6.0259,-6.0145,-6.0141,-6.0178,-6.0166,-6.0193,-6.0193,-6.017,-6.0289,-6.0308,-6.0388,-6.0235,-6.059,-6.0602,-6.0612,-6.0732,-6.0756,-6.0776,0,0,0,0,0,-5.9961,-6.0087,-6.0058,-6.0079,-6.0174,-6.0263,-6.0275,-6.0248,-6.0185,-6.0244,-6.0245,-6.0192,-6.037,-6.0302,-6.0322,-6.0405,-6.0585,-6.0599,-6.0611,-6.0722,-6.0751,-6.0775,0,0,0,0,0,0,-6.0072,-6.009,-6.0057,-6.0195,-6.0229,-6.0246,-6.032,-6.028,-6.0331,-6.0317,-6.0281,-6.0288,-6.0408,-6.0418,-6.0343,-6.0556,-6.0466,-6.0484,-6.0544,-6.0571,-6.0593,-6.0586,-6.0241,0,0,0,0,0,-6.0113,-6.0185,-6.0196,-6.0317,-6.0336,-6.0326,-6.0363,-6.034,-6.0372,-6.0385,-6.0395,-6.0427,-6.049,-6.0532,-6.059,-6.0735,-6.0737,-6.0802,-6.0824,-6.0842,-6.0856,-6.0931,-6.0959,-6.0661,-6.066,-6.066,0,0,-6.0196,-6.0215,-6.0263,-6.034,-6.0363,-6.0437,-6.0338,-6.0421,-6.0474,-6.0397,-6.0504,-6.0513,-6.0546,-6.0675,-6.0733,-6.0688,-6.094,-6.0859,-6.0873,-6.0878,-6.0948,-6.0976,-6.1001,-6.0669,-6.0668,-6.0666,0,0,-6.0387,-6.041,-6.0512,-6.0537,-6.0574,-6.0567,-6.0592,-6.0616,-6.0619,-6.0726,-6.0669,-6.0732,-6.0842,-6.0868,-6.0895,-6.1097,-6.1048,-6.1117,-6.1229,-6.1303,-6.1326,-6.1346,-6.1415,-6.1441,-6.1132,-6.1132,-6.1133,0,-6.0485,-6.0596,-6.0569,-6.0655,-6.0689,-6.0626,-6.0727,-6.0753,-6.0807,-6.0831,-6.0781,-6.0917,-6.0935,-6.1068,-6.1117,-6.1143,-6.1167,-6.1111,-6.1325,-6.1346,-6.1364,-6.1429,-6.1456,-6.114,-6.1139,-6.1138,-6.1138,0,-6.0715,-6.0793,-6.087,-6.0925,-6.0968,-6.1062,-6.1047,-6.1094,-6.1068,-6.1065,-6.1174,-6.1194,-6.1254,-6.1285,-6.126,-6.1414,-6.1385,-6.1332,-6.124,-6.1401,-6.1461,-6.1486,-6.1151,-6.1149,-6.1146,-6.1144,0,0,-6.0973,-6.1013,-6.1041,-6.1064,-6.1101,-6.1159,-6.125,-6.1311,-6.135,-6.139,-6.1463,-6.1558,-6.1508,-6.154,-6.1517,-6.1582,-6.1737,-6.152,-6.152,-6.1556,-6.1905,-6.1942,-6.1972,-6.1707,-6.1712,-6.1715,-6.1901,0,-6.116,-6.1318,-6.1296,-6.1446,-6.1516,-6.1458,-6.1536,-6.1566,-6.1567,-6.1625,-6.1625,-6.1692,-6.1623,-6.1641,-6.1704,-6.1705,-6.1805,-6.1692,-6.1771,-6.1774,-6.1761,-6.2004,-6.2044,-6.2218,-6.1925,-6.1929,-6.1932,0,-6.1399,-6.1449,-6.1607,-6.1631,-6.166,-6.1731,-6.1784,-6.1842,-6.1874,-6.187,-6.1906,-6.1871,-6.196,-6.1871,-6.1991,-6.1914,-6.1946,-6.1952,-6.1958,-6.1961,-6.186,-6.201,-6.2273,-6.2298,-6.1969,-6.1966,-6.1963,0,-6.1568,-6.1674,-6.1781,-6.1804,-6.1837,-6.1887,-6.1903,-6.1931,-6.1968,-6.2015,-6.2038,-6.2094,-6.2124,-6.2167,-6.2148,-6.2086,-6.2272,-6.2181,-6.2268,-6.2268,-6.2306,-6.2303,-6.2574,-6.2334,-6.2333,-6.2333,-6.2332,0,-6.1777,-6.1874,-6.1857,-6.1923,-6.2031,-6.2005,-6.2111,-6.212,-6.2145,-6.221,-6.2164,-6.2226,-6.2199,-6.2258,-6.2245,-6.2345,-6.2359,-6.2356,-6.2351,-6.2358,-6.2358,-6.2375,-6.2361,-6.234,-6.2338,-6.2337,-6.2336,0,-6.1981,-6.1974,-6.2087,-6.2109,-6.2117,-6.2195,-6.2213,-6.2274,-6.2272,-6.2355,-6.2373,-6.2369,-6.2437,-6.2424,-6.2498,-6.2489,-6.2613,-6.2595,-6.2602,-6.2596,-6.2683,-6.2673,-6.2971,-6.3007,-6.2747,-6.275,-6.2752,0,-6.2113,-6.2187,-6.2218,-6.2259,-6.2278,-6.2345,-6.2383,-6.2361,-6.2402,-6.2446,-6.2501,-6.2565,-6.2614,-6.2725,-6.2728,-6.2785,-6.2764,-6.2865,-6.2772,-6.2777,-6.2761,-6.2756,-6.2762,-6.2882,-6.2885,-6.2887,-6.2889,0,-6.2346,-6.2339,-6.2397,-6.2454,-6.2501,-6.2544,-6.2583,-6.2619,-6.2599,-6.2648,-6.2718,-6.2756,-6.2833,-6.2896,-6.2949,-6.2963,-6.2923,-6.292,-6.2942,-6.2948,-6.2948,-6.2946,-6.2648,-6.2911,-6.2909,-6.2908,-6.2906,-6.2906,-6.2516,-6.2578,-6.261,-6.2675,-6.2702,-6.2739,-6.2797,-6.2803,-6.2861,-6.2922,-6.2906,-6.2984,-6.3014,-6.3081,-6.3101,-6.3161,-6.3123,-6.3157,-6.3164,-6.3172,-6.3181,-6.2942,-6.3171,-6.317,-6.317,-6.3169,-6.3169,0,-6.2744,-6.2762,-6.2822,-6.2878,-6.2929,-6.289,-6.293,-6.2975,-6.3045,-6.3077,-6.3128,-6.3207,-6.3268,-6.3277,-6.3334,-6.338,-6.3363,-6.3396,-6.339,-6.3393,-6.3213,-6.3186,-6.3409,-6.3409,-6.3409,-6.3409,-6.3408,-6.3408,-6.2868,-6.2971,-6.2968,-6.3083,-6.3099,-6.3176,-6.3203,-6.3236,-6.3262,-6.3352,-6.3403,-6.341,-6.3432,-6.3491,-6.3545,-6.3546,-6.3567,-6.3607,-6.36,-6.343,-6.3406,-6.3383,-6.3358,-6.3613,-6.3613,-6.3775,-6.3777,-6.3778]},{"header":{"parameterUnit":"m.s-1","parameterCategory":1,"la1":30.2991,"la2":30.254,"lo1":-89.0895,"lo2":-89.0444,"dy":0.0017,"dx":0.0017,"nx":28,"ny":28,"refTime":"2023-08-20T09:00:00:Z","depth":0,"parameterNumber":3,"parameterNumberName":"V-component_of_WINDS"},"data":[0,0,0,0,0,0,0,0,0,0,0,0,0,0,0,0,0,0,0,0,0,0,0,0,0,0,0,0,0,0,0,0,0,0,0,0,0,0,0,0,0,0,0,0,0,0,0,0,0,0,0,0,0,0,0,0,0,0,1.8823,1.8823,0,1.886,1.8861,1.8861,1.8845,1.8844,1.8843,1.8842,1.8877,1.8879,1.888,0,0,0,0,0,0,0,0,0,0,0,0,0,1.8735,1.8736,1.8823,1.8823,1.8824,1.886,1.8861,1.8861,1.8845,1.8844,1.8843,1.8841,1.8876,1.8878,1.8881,0,0,0,0,0,0,0,0,0,0,0,0,0,1.8772,1.8737,1.8822,1.882,1.882,1.886,1.8861,1.8861,1.8845,1.8844,1.8842,1.8841,1.8876,1.8878,1.8881,1.8925,0,0,1.8889,1.889,0,0,0,0,0,0,0,0,1.877,1.8776,1.882,1.882,1.882,1.8846,1.8842,1.8882,1.8845,1.8835,1.8842,1.884,1.8868,1.8871,1.8881,1.8926,1.8928,1.8889,1.8891,1.8892,1.8893,0,0,0,0,0,0,0,1.8768,1.8774,1.8837,1.882,1.8821,1.8816,1.882,1.885,1.8858,1.8836,1.8835,1.884,1.8867,1.8878,1.8881,1.8928,1.8889,1.8892,1.8893,1.8894,1.9012,1.9014,0,0,0,0,0,0,1.8765,1.8772,1.8836,1.8838,1.8792,1.8819,1.8823,1.8839,1.8858,1.886,1.8841,1.8839,1.8874,1.8878,1.8883,1.8936,1.8892,1.8894,1.8896,1.9011,1.9013,1.9014,0,0,0,0,0,0,1.8764,1.8771,1.8835,1.8805,1.8813,1.8822,1.884,1.8841,1.8851,1.8862,1.8863,1.8851,1.8873,1.8879,1.8915,1.8937,1.8896,1.8898,1.9009,1.9012,1.9014,1.9042,0,0,0,0,0,0,1.8761,1.8771,1.8788,1.8805,1.8814,1.8867,1.8841,1.8842,1.8857,1.8854,1.8871,1.8873,1.8873,1.8911,1.8917,1.8939,1.89,1.9007,1.901,1.9013,1.9039,1.9044,1.9049,0,0,0,0,0,1.8758,1.8793,1.8789,1.8797,1.8836,1.8868,1.8873,1.8873,1.8858,1.8875,1.8882,1.8872,1.8933,1.8915,1.8922,1.8945,1.9006,1.9009,1.9013,1.9036,1.9043,1.9049,0,0,0,0,0,0,1.8776,1.8795,1.8791,1.8833,1.8849,1.8865,1.8886,1.8881,1.8901,1.8897,1.8896,1.89,1.8937,1.8945,1.8924,1.8989,1.8967,1.8972,1.8983,1.8989,1.8995,1.8992,1.8902,0,0,0,0,0,1.8785,1.881,1.8826,1.8861,1.887,1.8877,1.8891,1.889,1.8906,1.8913,1.8922,1.8938,1.8961,1.8976,1.8997,1.904,1.9044,1.906,1.9065,1.907,1.9074,1.9098,1.9105,1.9026,1.9026,1.9026,0,0,1.8803,1.8817,1.8833,1.8865,1.8878,1.8903,1.8883,1.891,1.8929,1.8917,1.8952,1.8959,1.8977,1.9017,1.9035,1.9024,1.9097,1.9074,1.9077,1.9079,1.9102,1.9109,1.9116,1.9028,1.9028,1.9027,0,0,1.885,1.8863,1.8895,1.8909,1.8929,1.8934,1.8941,1.8959,1.8964,1.9,1.8991,1.9013,1.9052,1.9065,1.9077,1.9131,1.9123,1.9138,1.9166,1.919,1.9196,1.9201,1.9221,1.9228,1.9143,1.9143,1.9143,0,1.887,1.8909,1.8911,1.8941,1.8955,1.8947,1.8979,1.8992,1.9017,1.9027,1.9015,1.9065,1.9076,1.912,1.9133,1.9143,1.9151,1.9136,1.9195,1.9201,1.9206,1.9224,1.9232,1.9145,1.9144,1.9144,1.9144,0,1.8933,1.8961,1.8984,1.9011,1.9028,1.9058,1.9064,1.9081,1.908,1.9086,1.9122,1.9136,1.916,1.9171,1.9168,1.9214,1.9207,1.9195,1.9173,1.9215,1.9232,1.9239,1.9147,1.9146,1.9146,1.9145,0,0,1.899,1.902,1.9028,1.9041,1.9063,1.9084,1.9115,1.914,1.9155,1.9173,1.9198,1.9233,1.9223,1.9236,1.9236,1.9257,1.9299,1.9242,1.9243,1.9252,1.9351,1.9359,1.9367,1.9294,1.9296,1.9297,1.9349,0,1.9039,1.9093,1.9096,1.9145,1.9171,1.9165,1.9191,1.9207,1.9214,1.9237,1.9244,1.9269,1.9253,1.9262,1.9282,1.929,1.9319,1.9286,1.9317,1.9318,1.9312,1.9376,1.9385,1.9433,1.9356,1.9357,1.9358,0,1.9102,1.9124,1.9176,1.9197,1.9208,1.9231,1.9256,1.9278,1.9296,1.93,1.9316,1.9313,1.9344,1.9322,1.9364,1.9342,1.9355,1.9361,1.9363,1.9365,1.934,1.938,1.9449,1.9456,1.9369,1.9368,1.9367,0,1.9139,1.9182,1.9219,1.923,1.9254,1.9271,1.9282,1.93,1.9316,1.9337,1.9347,1.9371,1.9384,1.9402,1.9406,1.939,1.9448,1.9426,1.9452,1.9452,1.9463,1.9463,1.9535,1.9473,1.9473,1.9473,1.9472,0,1.9192,1.9224,1.9236,1.9258,1.9294,1.9298,1.9333,1.9343,1.9359,1.9383,1.9378,1.9401,1.9405,1.9428,1.9431,1.9465,1.9471,1.9475,1.9475,1.9475,1.9474,1.9483,1.9479,1.9475,1.9474,1.9474,1.9473,0,1.9238,1.9248,1.9287,1.9309,1.9315,1.934,1.9358,1.9379,1.9387,1.9417,1.9425,1.9436,1.9463,1.9469,1.9501,1.9503,1.9544,1.9541,1.9538,1.9538,1.9563,1.956,1.9643,1.9654,1.9584,1.9585,1.9586,0,1.9271,1.9296,1.9321,1.9338,1.935,1.9376,1.9393,1.9398,1.9415,1.944,1.9459,1.9486,1.9508,1.9552,1.9562,1.9586,1.9584,1.9611,1.9587,1.9587,1.9584,1.9583,1.9585,1.9615,1.9616,1.9617,1.9617,0,1.933,1.9334,1.9358,1.9385,1.9406,1.9427,1.9447,1.9461,1.9468,1.9488,1.9517,1.9534,1.9568,1.9595,1.962,1.963,1.9625,1.9625,1.9632,1.9632,1.9629,1.9631,1.955,1.9623,1.9622,1.9622,1.9622,1.9621,1.937,1.9393,1.9414,1.9442,1.9458,1.9478,1.9499,1.951,1.9535,1.9564,1.9565,1.9597,1.9616,1.9649,1.9661,1.9686,1.9677,1.9687,1.969,1.9692,1.9695,1.9626,1.969,1.969,1.969,1.969,1.969,0,1.9428,1.9442,1.9468,1.9498,1.952,1.9515,1.9538,1.9556,1.9584,1.9603,1.9626,1.9659,1.9686,1.9699,1.9726,1.9743,1.9741,1.9749,1.9748,1.975,1.9701,1.9692,1.975,1.975,1.975,1.975,1.975,1.975,1.9461,1.9499,1.9505,1.9551,1.9565,1.9597,1.961,1.9628,1.9643,1.9681,1.9704,1.9713,1.973,1.9758,1.9782,1.9785,1.9795,1.9805,1.9807,1.976,1.9754,1.9748,1.9739,1.9807,1.9807,1.9854,1.9855,1.9855]}]]